Atlantic City, NJ

10:50 PM EDT on October 18, 2017 (GMT -0400)
Atlantic City International

Weather History for KACY - March, 2014

Change the Weather History Date:

Wednesday, March 19, 2014

  Actual Average Record
Temperature  
Mean Temperature 45 °F 43 °F  
Max Temperature 53 °F 53 °F 76 °F (1918)
Min Temperature 36 °F 33 °F 7 °F (1967)
Degree Days  
Heating Degree Days 20 22  
Month to date heating degree days 564 466  
Since 1 July heating degree days 4427 4057  
Cooling Degree Days 0 0  
Month to date cooling degree days 0 0  
Year to date cooling degree days 0 0  
Moisture  
Dew Point 40 °F    
Average Humidity 84    
Maximum Humidity 96    
Minimum Humidity 71    
Precipitation  
Precipitation 0.42 in 0.13 in 2.63 in (1906)
Month to date precipitation 1.94 2.52  
Year to date precipitation 10.49 8.61  
Snow  
Snow 0.00 in 0.00 in 5.40 in (1956)
Month to date snowfall 11.4 0.9  
Since 1 July snowfall 39.6 16.0  
Snow Depth 0.00 in    
Sea Level Pressure  
Sea Level Pressure 30.05 in    
Wind  
Wind Speed 12 mph (ESE)    
Max Wind Speed 22 mph    
Max Gust Speed 34 mph    
Visibility 8 miles    
Events Rain    
T = Trace of Precipitation, MM = Missing Value Source: NWS Daily Summary

Daily Weather History Graph

Daily Weather History Graph

Search for Another Location

Airport or City:

Trip Planner

Search our weather history database for the weather conditions in past years. The results will help you decide how hot, cold, wet, or windy it might be!

Date:

Astronomy

Mar. 19, 2014 Rise Set
Actual Time 7:03 AM EDT 7:09 PM EDT
Civil Twilight 6:36 AM EDT 7:36 PM EDT
Nautical Twilight 6:05 AM EDT 8:07 PM EDT
Astronomical Twilight 5:33 AM EDT 8:39 PM EDT
Moon 10:24 PM EDT 8:28 AM EDT
Length of Visible Light 12h 59m
Length of Day
12h 05m
Waning Gibbous, 91% of the Moon is Illuminated
Mar 19
Waning Gibbous
Mar 23
Last Quarter
Mar 30
New
Apr 7
First Quarter
Apr 15
Full

Hourly Weather History & Observations

Time (EDT) Temp. Windchill Dew Point Humidity Pressure Visibility Wind Dir Wind Speed Gust Speed Precip Events Conditions
12:54 AM 36.0 °F 29.0 °F 30.0 °F 79% 30.24 in 10.0 mi East 9.2 mph - N/A   Overcast
1:54 AM 36.0 °F 27.5 °F 30.0 °F 79% 30.23 in 10.0 mi East 12.7 mph - N/A   Overcast
2:54 AM 37.0 °F 30.4 °F 30.9 °F 79% 30.22 in 10.0 mi ENE 9.2 mph - N/A   Overcast
3:54 AM 37.0 °F 31.0 °F 30.9 °F 79% 30.23 in 10.0 mi ENE 8.1 mph - N/A   Overcast
4:54 AM 37.0 °F 28.9 °F 32.0 °F 82% 30.22 in 10.0 mi ENE 12.7 mph - N/A   Overcast
5:22 AM 37.0 °F 30.4 °F 32.0 °F 82% 30.23 in 10.0 mi NE 9.2 mph - N/A   Overcast
5:54 AM 37.0 °F 31.0 °F 32.0 °F 82% 30.24 in 10.0 mi NE 8.1 mph - N/A   Overcast
6:54 AM 37.0 °F 30.4 °F 32.0 °F 82% 30.25 in 10.0 mi ENE 9.2 mph - N/A   Overcast
7:54 AM 37.9 °F 29.6 °F 33.1 °F 83% 30.24 in 10.0 mi East 13.8 mph - N/A   Overcast
8:54 AM 39.9 °F 31.8 °F 34.0 °F 79% 30.23 in 10.0 mi ENE 15.0 mph - N/A   Overcast
9:54 AM 42.1 °F 34.2 °F 35.1 °F 76% 30.22 in 10.0 mi ENE 16.1 mph - N/A   Overcast
10:54 AM 44.1 °F 37.4 °F 37.0 °F 76% 30.20 in 10.0 mi ENE 13.8 mph 23.0 mph N/A   Overcast
11:54 AM 45.0 °F 38.5 °F 37.9 °F 76% 30.19 in 10.0 mi ENE 13.8 mph - N/A   Overcast
12:54 PM 46.0 °F 40.6 °F 37.9 °F 73% 30.16 in 10.0 mi East 11.5 mph 19.6 mph N/A   Overcast
1:54 PM 46.0 °F 39.6 °F 39.0 °F 76% 30.12 in 10.0 mi East 15.0 mph - N/A   Overcast
2:54 PM 44.1 °F 38.1 °F 41.0 °F 89% 30.08 in 3.0 mi East 11.5 mph - 0.00 in Rain Light Rain
3:54 PM 44.1 °F 38.6 °F 42.1 °F 93% 30.04 in 9.0 mi East 10.4 mph - 0.02 in   Overcast
4:54 PM 46.0 °F 40.6 °F 43.0 °F 89% 30.01 in 10.0 mi ESE 11.5 mph - N/A   Overcast
5:54 PM 46.0 °F 39.9 °F 43.0 °F 89% 29.98 in 9.0 mi ESE 13.8 mph - N/A   Overcast
6:54 PM 48.0 °F - 45.0 °F 89% 29.95 in 8.0 mi SE 17.3 mph 25.3 mph N/A   Overcast
7:33 PM 48.0 °F - 46.0 °F 93% 29.91 in 9.0 mi SE 16.1 mph - N/A   Overcast
7:54 PM 48.9 °F - 46.0 °F 90% 29.90 in 10.0 mi SSE 11.5 mph - N/A   Overcast
8:54 PM 52.0 °F - 48.0 °F 86% 29.88 in 10.0 mi South 9.2 mph 20.7 mph 0.00 in Rain Light Rain
9:51 PM 51.8 °F - 48.2 °F 88% 29.87 in 1.8 mi SW 16.1 mph 23.0 mph 0.10 in Rain Heavy Rain
9:54 PM 51.1 °F - 48.9 °F 92% 29.88 in 1.2 mi WSW 12.7 mph 24.2 mph 0.15 in Rain Heavy Rain
9:57 PM 51.1 °F - 48.9 °F 92% 29.88 in 1.2 mi SW 11.5 mph 24.2 mph 0.06 in Rain Heavy Rain
10:05 PM 51.1 °F - 48.9 °F 92% 29.87 in 2.0 mi South 11.5 mph - 0.12 in Rain Rain
10:14 PM 51.1 °F - 50.0 °F 96% 29.85 in 4.0 mi South 10.4 mph - 0.14 in Rain Light Rain
10:34 PM 51.1 °F - 51.1 °F 100% 29.85 in 9.0 mi SW 9.2 mph - 0.19 in Rain Light Rain
10:54 PM 51.1 °F - 50.0 °F 96% 29.86 in 4.0 mi WSW 12.7 mph - 0.20 in Rain Light Rain
11:37 PM 48.0 °F - 46.9 °F 96% 29.84 in 2.5 mi WNW 10.4 mph - 0.05 in   Overcast
11:49 PM 48.2 °F - 46.4 °F 93% 29.83 in 5.0 mi West 8.1 mph - 0.05 in   Overcast
11:54 PM 48.0 °F - 46.9 °F 96% 29.83 in 8.0 mi West 6.9 mph - 0.05 in   Overcast